Wind_Speed
72 71 62 56 52 53 53 51 52 46 44 50 48 50 41 27 31 28 28 30 35 39 43 46 51 48 49 61 84 98 109 117 115 108 106 101 99 94 91 85 79 79 75 70
71 65 51 46 46 49 48 49 49 50 45 46 44 44 34 33 26 29 34 36 36 36 42 46 49 50 47 48 55 74 93 108 114 118 110 108 103 100 95 91 86 81 79 74
66 55 48 43 48 49 46 46 46 48 47 39 42 39 12 15 23 31 36 39 40 39 40 44 42 44 48 48 50 55 68 90 107 110 119 113 108 105 102 96 89 82 82 76
61 51 49 45 39 40 43 41 41 42 44 39 39 23 8 21 25 28 34 35 31 29 30 32 37 42 46 49 50 53 57 64 82 104 114 121 115 109 104 99 92 88 83 79
53 49 48 40 36 40 43 37 35 39 38 37 29 30 18 21 23 28 26 28 30 30 33 37 42 45 46 47 47 46 51 53 60 78 108 118 122 114 107 103 98 91 85 82
50 43 43 38 34 30 29 32 33 35 35 32 25 23 13 23 24 25 24 28 34 39 43 46 50 54 58 60 56 55 54 50 51 59 85 120 123 119 112 105 100 93 87 85
49 37 39 35 29 28 28 31 34 33 33 31 28 21 23 24 21 21 26 32 39 43 44 45 46 49 51 54 64 65 59 52 52 52 73 113 122 123 117 109 101 97 87 87
49 41 36 34 29 30 28 27 27 30 32 34 30 18 21 19 20 22 26 32 39 41 32 29 29 26 26 27 34 46 55 54 52 55 74 101 123 122 120 112 103 98 88 83
43 41 32 33 31 29 23 22 23 27 29 33 26 19 19 22 21 23 28 32 33 24 23 26 26 29 30 30 29 28 38 45 50 53 69 91 123 120 120 114 105 98 88 82
33 39 31 32 27 21 22 23 19 18 28 34 27 16 26 26 24 27 29 30 23 17 25 27 28 32 34 32 33 33 39 46 48 48 71 90 118 117 112 115 106 99 75 83
32 35 34 29 27 21 18 18 19 23 24 28 30 15 28 27 27 29 31 29 30 25 27 27 36 32 29 23 20 29 30 41 43 49 71 91 110 109 98 110 103 99 84 55
33 31 33 31 27 23 22 19 21 23 25 21 29 17 26 27 27 31 31 30 32 30 29 32 33 21 10 16 15 15 16 28 38 53 75 87 104 91 89 92 93 95 82 50
29 28 35 34 26 23 22 18 19 22 24 17 25 20 26 26 25 29 28 29 31 30 31 30 19 6 15 10 7 11 3 18 34 59 67 85 93 86 81 80 83 83 89 87
27 35 32 28 28 24 19 20 18 20 19 19 13 16 18 20 22 23 23 28 27 29 25 21 14 8 12 7 7 10 4 18 45 59 61 87 81 71 73 76 71 72 78 79
23 34 37 36 25 21 17 16 13 15 17 18 9 18 22 20 19 20 20 25 24 25 23 23 18 11 11 17 19 13 18 31 51 52 65 80 76 64 64 77 80 51 86 32
19 19 19 19 12 15 13 11 9 12 12 15 11 14 18 17 17 18 19 21 22 22 24 21 20 11 11 18 23 25 25 33 43 55 62 79 83 53 57 73 54 46 73 86
10 5 6 4 4 8 6 5 5 10 8 11 11 12 13 13 15 16 17 17 20 20 22 15 20 13 6 10 18 21 30 36 32 46 54 71 73 63 43 64 73 54 40 63
8 8 2 2 2 4 2 2 5 8 7 8 7 8 10 9 12 14 16 17 20 21 22 23 18 13 7 14 21 21 34 38 37 34 39 57 67 64 48 44 58 63 51 43
5 4 0 2 6 4 4 4 3 7 8 8 7 6 7 7 8 10 12 15 17 18 19 19 16 14 7 3 7 11 31 33 34 33 34 41 58 67 67 38 39 54 63 57
3 2 3 6 7 2 4 7 6 6 9 8 7 5 5 5 5 5 5 8 14 13 13 16 16 15 15 10 3 4 7 27 32 32 24 34 34 57 70 45 43 46 47 52
2 2 5 7 6 3 5 8 9 6 7 8 8 5 4 3 3 2 4 9 13 14 16 19 16 9 10 11 14 15 13 0 9 31 44 32 33 43 39 52 58 66 57 59
2 3 5 5 2 4 3 5 9 9 7 7 7 7 5 5 3 3 1 4 9 12 15 14 18 17 10 8 9 12 14 13 12 9 18 28 34 36 31 30 34 37 45 50
5 8 8 9 9 5 4 6 6 12 11 8 7 6 8 6 7 6 5 4 5 7 9 11 14 15 16 11 10 13 9 12 13 12 19 23 25 26 27 29 29 32 35 38
8 11 9 9 9 6 6 7 8 9 16 13 10 7 7 9 8 8 8 7 6 6 6 7 9 9 11 12 11 10 11 13 13 15 16 17 23 23 24 23 25 28 31 33
9 10 10 9 10 7 5 6 9 8 11 18 15 13 9 8 10 10 10 9 8 6 6 6 6 6 7 5 5 5 5 5 4 4 8 11 14 18 23 24 23 25 29 32
9 9 10 9 8 6 5 8 11 12 10 11 19 18 15 11 11 12 12 12 11 11 10 10 9 9 7 5 4 3 3 4 4 6 8 8 10 14 19 21 24 25 27 30
Wind_Direction
310 307 310 300 299 296 296 298 303 309 308 295 298 295 298 289 277 272 268 262 261 263 262 265 261 257 252 245 239 236 236 236 232 229 225 224 224 222 222 223 226 228 229 227
310 313 305 291 290 288 290 294 305 302 309 300 304 300 300 288 260 275 278 278 274 276 270 266 268 265 259 251 247 239 235 232 231 229 226 223 223 222 220 221 222 225 228 229
311 316 300 287 286 286 283 293 297 303 306 307 305 319 309 280 276 277 283 282 276 270 266 262 261 257 259 255 250 245 240 234 229 225 226 223 220 221 220 219 220 222 227 227
316 312 299 296 293 282 283 290 295 304 305 309 313 321 335 309 295 286 282 284 276 272 266 266 264 263 264 258 253 249 247 242 236 222 219 222 220 219 220 219 219 219 224 226
321 310 300 297 291 284 287 291 300 304 306 305 315 295 317 305 299 298 291 285 276 275 278 276 273 271 268 264 260 256 254 249 241 235 215 214 218 217 218 217 217 218 221 225
311 314 301 297 293 286 292 304 303 303 302 305 316 302 328 311 301 297 293 285 276 278 279 277 275 272 269 266 262 258 256 250 248 237 221 208 212 214 214 217 215 216 219 222
314 313 298 293 286 285 302 310 304 304 307 307 322 308 327 312 310 304 296 293 289 286 284 284 281 276 274 269 259 255 253 249 245 243 215 211 204 210 211 214 214 215 218 220
310 312 297 293 296 291 298 303 300 301 306 305 313 314 328 314 321 315 304 304 307 303 299 290 289 289 294 289 263 248 249 248 240 242 216 208 205 203 208 210 212 214 216 220
307 303 294 294 300 294 297 306 299 298 300 303 315 332 352 324 327 320 313 317 318 309 298 304 296 291 292 285 278 257 243 237 237 240 221 203 203 202 203 207 208 212 215 219
301 304 292 292 302 298 309 311 301 301 303 307 318 348 334 338 330 325 323 321 316 293 297 304 306 306 297 286 273 271 255 241 236 236 210 198 200 202 200 204 205 209 214 220
291 288 292 299 311 300 315 324 314 303 302 302 315 5 340 338 331 329 325 321 319 308 291 307 310 313 305 296 281 289 257 232 230 216 199 191 195 199 201 201 202 205 209 215
300 287 291 291 300 303 296 304 307 298 297 301 307 349 340 336 334 327 328 328 325 315 312 304 319 327 319 313 313 330 250 220 210 199 186 184 192 192 201 203 201 204 202 199
289 287 286 291 294 303 284 296 298 285 294 307 299 326 336 332 335 329 329 335 338 333 318 326 342 332 346 350 13 15 251 209 200 183 174 183 183 189 194 198 198 201 209 209
279 279 278 285 281 299 281 283 289 281 291 291 316 316 330 330 328 328 332 342 350 351 5 16 25 8 13 33 63 48 87 182 174 170 167 181 182 185 192 198 194 209 208 214
277 267 268 262 277 281 278 284 272 293 282 294 290 315 330 335 334 338 347 353 3 5 5 22 28 358 27 35 106 70 134 161 163 164 171 186 184 183 189 197 201 209 203 202
239 269 282 278 258 272 286 281 277 303 278 292 299 319 327 339 341 351 354 358 7 18 11 14 31 18 22 67 70 111 142 136 170 169 177 188 191 181 193 194 181 192 213 217
257 258 252 121 252 284 299 240 290 310 290 301 301 316 330 338 346 356 7 8 16 17 23 20 20 41 96 85 67 88 152 157 146 177 180 189 193 184 186 206 209 204 198 209
105 120 101 101 294 351 162 214 290 325 273 299 305 313 326 339 350 355 11 20 25 21 20 29 36 47 115 87 75 92 136 159 169 164 157 195 196 184 181 196 216 220 213 204
79 77 272 340 327 319 233 221 288 318 288 283 301 308 324 341 351 358 3 27 30 21 20 40 61 60 130 157 54 73 143 161 170 190 189 188 197 196 201 188 188 210 222 233
154 260 323 328 317 346 231 237 256 295 323 277 293 297 313 337 338 2 20 52 55 56 47 52 63 89 68 63 163 242 115 154 167 202 207 174 177 204 207 197 196 218 210 218
41 5 288 297 325 287 268 249 241 272 306 297 276 286 275 286 312 335 41 58 61 71 70 83 90 84 91 96 95 104 93 332 153 147 177 201 211 207 203 217 225 232 240 243
229 185 247 275 281 203 288 272 239 249 277 310 291 263 261 248 239 250 218 81 71 66 63 64 89 110 117 128 126 123 113 122 166 146 164 174 184 185 190 206 220 230 232 237
246 218 239 253 269 255 270 288 275 242 244 265 301 296 245 246 237 232 220 183 129 99 86 75 66 75 104 124 121 126 145 150 149 154 180 186 199 205 205 208 213 222 229 232
241 238 229 247 271 310 304 289 323 273 231 239 262 297 267 234 242 239 229 211 186 147 131 117 109 94 80 84 93 94 125 144 159 168 184 205 215 215 216 220 223 223 224 227
236 220 230 253 275 287 304 344 348 339 258 239 245 263 279 253 233 245 241 229 212 195 180 167 158 153 135 118 106 97 90 87 93 144 176 193 201 205 211 220 229 231 230 231
215 236 246 264 289 276 323 326 322 322 307 271 249 251 258 261 243 235 242 244 230 221 213 201 203 204 198 211 239 270 280 273 259 244 230 225 226 227 231 238 243 242 240 240
Height
5527 5515 5509 5495 5487 5479 5473 5466 5460 5460 5456 5438 5436 5429 5432 5431 5422 5419 5417 5418 5418 5417 5418 5416 5414 5416 5419 5423 5427 5436 5448 5471 5485 5503 5520 5536 5551 5566 5578 5593 5605 5614 5624 5631
5508 5504 5491 5482 5477 5467 5464 5455 5452 5445 5441 5429 5425 5418 5419 5414 5413 5410 5406 5406 5407 5407 5405 5404 5400 5401 5402 5405 5406 5411 5418 5434 5451 5471 5493 5511 5529 5543 5559 5570 5584 5597 5608 5618
5494 5492 5475 5469 5465 5455 5452 5447 5441 5434 5429 5425 5412 5407 5405 5404 5403 5401 5398 5394 5394 5394 5391 5388 5387 5386 5388 5389 5391 5393 5396 5404 5417 5439 5460 5481 5502 5518 5534 5552 5569 5584 5595 5606
5481 5473 5461 5457 5453 5444 5438 5440 5432 5426 5418 5414 5412 5399 5402 5398 5394 5392 5387 5383 5381 5382 5381 5378 5375 5374 5372 5373 5374 5375 5378 5381 5387 5407 5426 5450 5474 5496 5520 5540 5555 5566 5578 5590
5471 5459 5446 5443 5440 5435 5431 5426 5423 5417 5411 5405 5406 5397 5396 5390 5386 5382 5378 5374 5372 5371 5369 5367 5363 5360 5359 5358 5358 5359 5360 5363 5368 5375 5395 5417 5445 5475 5499 5518 5536 5549 5563 5574
5451 5450 5436 5432 5430 5425 5420 5416 5413 5409 5403 5399 5397 5392 5391 5383 5379 5375 5371 5367 5364 5361 5357 5353 5348 5343 5339 5337 5337 5338 5341 5346 5349 5352 5368 5388 5416 5448 5474 5499 5518 5534 5548 5560
5440 5439 5427 5424 5421 5417 5411 5407 5402 5400 5395 5393 5390 5386 5382 5376 5372 5368 5363 5358 5352 5347 5341 5336 5331 5325 5318 5315 5313 5315 5320 5327 5330 5334 5343 5366 5391 5422 5452 5478 5504 5519 5534 5546
5422 5423 5419 5413 5412 5408 5406 5402 5397 5391 5388 5384 5383 5381 5378 5372 5366 5361 5356 5349 5342 5333 5327 5322 5317 5311 5305 5297 5293 5295 5300 5307 5311 5316 5323 5342 5375 5399 5432 5460 5487 5506 5525 5537
5411 5408 5408 5405 5404 5401 5399 5396 5391 5385 5383 5377 5375 5374 5371 5365 5360 5355 5349 5343 5334 5326 5320 5315 5308 5302 5296 5290 5286 5284 5284 5289 5293 5299 5307 5322 5356 5383 5412 5445 5471 5493 5512 5524
5405 5398 5401 5399 5398 5396 5392 5389 5385 5381 5376 5371 5369 5368 5362 5358 5353 5348 5342 5335 5327 5321 5314 5308 5301 5293 5285 5278 5274 5271 5270 5273 5277 5282 5292 5312 5343 5372 5401 5431 5457 5483 5503 5515
5397 5393 5392 5390 5390 5389 5387 5383 5381 5377 5374 5369 5361 5364 5358 5354 5348 5341 5336 5330 5322 5314 5307 5301 5293 5283 5273 5266 5262 5258 5251 5255 5261 5268 5285 5306 5336 5367 5398 5422 5449 5471 5501 5506
5388 5383 5381 5383 5383 5382 5381 5378 5376 5372 5370 5368 5361 5360 5355 5350 5344 5337 5332 5325 5316 5308 5301 5294 5286 5277 5268 5262 5255 5246 5244 5247 5253 5264 5286 5308 5336 5374 5398 5420 5442 5464 5477 5488
5380 5376 5372 5372 5377 5375 5373 5373 5371 5367 5364 5365 5359 5357 5352 5346 5341 5335 5329 5322 5313 5303 5295 5288 5281 5275 5268 5263 5257 5248 5247 5250 5257 5273 5292 5314 5347 5375 5397 5419 5437 5453 5469 5482
5369 5367 5366 5366 5367 5368 5366 5368 5366 5362 5360 5359 5358 5353 5351 5346 5340 5335 5328 5320 5312 5302 5294 5288 5282 5277 5270 5268 5263 5257 5257 5261 5271 5288 5308 5330 5352 5375 5395 5414 5439 5448 5464 5476
5357 5356 5355 5356 5360 5361 5360 5362 5360 5358 5356 5355 5355 5350 5348 5344 5339 5333 5327 5320 5313 5304 5296 5291 5287 5281 5277 5274 5272 5271 5273 5279 5291 5306 5322 5338 5356 5378 5397 5415 5425 5436 5454 5465
5344 5345 5346 5347 5352 5354 5356 5355 5356 5354 5352 5352 5350 5349 5346 5342 5337 5333 5328 5322 5315 5307 5300 5295 5292 5288 5283 5281 5280 5282 5291 5297 5307 5314 5330 5343 5359 5381 5395 5415 5424 5433 5446 5455
5338 5340 5342 5346 5349 5351 5353 5352 5352 5351 5350 5349 5348 5347 5344 5342 5337 5334 5329 5324 5317 5311 5304 5298 5295 5292 5290 5290 5290 5292 5300 5305 5313 5326 5338 5349 5364 5385 5400 5411 5418 5424 5437 5445
5338 5340 5342 5346 5347 5349 5349 5349 5349 5349 5348 5348 5347 5346 5344 5341 5338 5334 5331 5326 5321 5315 5309 5304 5300 5298 5298 5299 5299 5300 5306 5314 5325 5331 5348 5358 5367 5385 5395 5402 5410 5420 5434 5431
5342 5342 5344 5345 5346 5348 5347 5347 5348 5348 5347 5346 5345 5344 5343 5340 5338 5336 5333 5329 5325 5320 5315 5310 5309 5306 5306 5307 5308 5310 5319 5323 5332 5341 5350 5357 5370 5382 5388 5396 5406 5412 5416 5423
5345 5345 5345 5344 5345 5346 5346 5346 5346 5346 5346 5345 5345 5343 5342 5340 5339 5337 5335 5332 5330 5326 5322 5318 5313 5315 5314 5314 5315 5318 5322 5329 5336 5340 5348 5360 5370 5379 5384 5389 5393 5399 5410 5419
5344 5344 5344 5343 5343 5344 5344 5344 5345 5346 5348 5343 5343 5342 5341 5340 5339 5338 5336 5334 5332 5330 5328 5326 5325 5320 5321 5322 5323 5325 5328 5330 5336 5343 5350 5358 5366 5371 5378 5384 5390 5396 5403 5410
5343 5343 5343 5342 5342 5344 5343 5342 5343 5343 5342 5342 5341 5341 5340 5340 5339 5338 5337 5336 5334 5333 5332 5330 5330 5330 5329 5328 5329 5331 5334 5337 5340 5343 5347 5354 5362 5368 5373 5380 5385 5391 5398 5404
5342 5341 5341 5341 5340 5340 5339 5339 5339 5339 5339 5339 5339 5338 5338 5338 5338 5338 5337 5337 5336 5335 5335 5335 5334 5334 5333 5332 5333 5335 5338 5341 5344 5348 5352 5357 5363 5368 5373 5378 5383 5387 5393 5399
5338 5337 5338 5339 5338 5337 5336 5336 5336 5334 5335 5335 5336 5337 5336 5336 5336 5336 5336 5336 5336 5336 5336 5337 5338 5338 5338 5338 5338 5338 5340 5344 5347 5350 5353 5357 5361 5365 5369 5374 5379 5383 5387 5392
5335 5335 5335 5336 5335 5335 5334 5333 5332 5332 5332 5332 5333 5333 5334 5333 5333 5334 5335 5335 5335 5335 5336 5337 5338 5340 5341 5342 5343 5344 5344 5345 5346 5348 5351 5356 5359 5362 5364 5368 5372 5376 5380 5385
5333 5333 5333 5333 5333 5331 5330 5329 5329 5329 5329 5328 5329 5329 5330 5330 5330 5331 5332 5333 5334 5335 5335 5336 5337 5338 5339 5341 5342 5344 5345 5346 5348 5350 5352 5354 5356 5358 5362 5365 5368 5371 5373 5376